STARLINK-3338 (50812 NORAD) Tracking and Keplerian Element Data

This shows tracking and keplerian element data for the satellite.

Feedback or suggestion? Click here.




ElementValue
Catalog50812
NameSTARLINK-3338
Epoch Orbit130
Epoch Day140.58334491
Epoch Year2022
RAAN275.0599
Inclination53.2136
Eccentricity0.0002063
Argument of Perigee48.3846
Mean Anonmoly7.9113
Mean Motion15.08838949
Decay Rate-0.00019413
L11 50812U 22001K 22140.58334491 -.00019413 00000+0 -12049-2 0 9994
L22 50812 53.2136 275.0599 0002063 48.3846 7.9113 15.08838949 1309

Live tracking and technical data element details for STARLINK-3338 (NORAD 50812). STARLINK-3338 can be tracked NOW for your location showing map with azimuth and elevation plus other details from your city location.

Track the satellite on the map from your city or location and see movement details for azimuth, elevation, latitude, longitude, range, height, and movement on the map or in text.







IsCatalogInMostPopularTable: catalog: 50812, numindb: 20
Update: records affected: 1



GetName: 50812 STARLINK-3338

Hit Count: updated at: Mon, 23 May 2022 20:16:54 GMT